QPF
0.04 0.03 0.03 0.04 0.05 0.04 0.04 0.05 0.03 0.02 0.02 0.03 0.04 0.03 0.03 0.03 0.03 0.04 0.04 0.06 0.07 0.06 0.07 0.06 0.05 0.07 0.07 0.07 0.07 0.06 0.07 0.06 0.05 0.04 0.04 0.04 0.04 0.04 0.04 0.05 0.04 0.05 0.05
0.02 0.02 0.02 0.02 0.03 0.03 0.03 0.03 0.02 0.01 0.03 0.03 0.03 0.02 0.02 0.03 0.04 0.05 0.05 0.04 0.03 0.05 0.08 0.10 0.09 0.09 0.09 0.10 0.10 0.08 0.07 0.06 0.06 0.05 0.04 0.04 0.04 0.04 0.05 0.05 0.06 0.06 0.05
0.02 0.01 0.01 0.02 0.02 0.02 0.02 0.02 0.02 0.02 0.02 0.02 0.02 0.01 0.02 0.02 0.02 0.03 0.05 0.06 0.03 0.03 0.06 0.09 0.09 0.10 0.12 0.13 0.11 0.08 0.06 0.05 0.05 0.05 0.04 0.03 0.03 0.04 0.05 0.04 0.05 0.05 0.06
0.01 0.02 0.02 0.02 0.02 0.02 0.02 0.02 0.03 0.04 0.03 0.03 0.02 0.01 0.01 0.02 0.01 0.02 0.05 0.06 0.05 0.03 0.03 0.04 0.08 0.09 0.09 0.10 0.11 0.09 0.07 0.05 0.04 0.03 0.03 0.03 0.03 0.02 0.03 0.03 0.03 0.03 0.04
0.01 0.03 0.02 0.02 0.03 0.03 0.03 0.02 0.03 0.03 0.03 0.03 0.02 0.01 0.01 0.01 0.01 0.02 0.04 0.05 0.04 0.03 0.03 0.02 0.03 0.04 0.06 0.07 0.08 0.07 0.06 0.04 0.03 0.03 0.02 0.02 0.02 0.02 0.02 0.02 0.02 0.02 0.03
0.02 0.03 0.02 0.03 0.02 0.03 0.04 0.04 0.04 0.03 0.03 0.02 0.01 0.00 0.01 0.01 0.01 0.02 0.04 0.06 0.05 0.03 0.02 0.02 0.02 0.02 0.04 0.05 0.04 0.06 0.05 0.03 0.02 0.02 0.02 0.02 0.03 0.03 0.02 0.02 0.02 0.02 0.03
0.02 0.02 0.02 0.03 0.04 0.03 0.03 0.03 0.05 0.03 0.03 0.01 0.01 0.01 0.01 0.01 0.00 0.01 0.03 0.04 0.06 0.05 0.03 0.02 0.02 0.03 0.04 0.05 0.05 0.04 0.02 0.02 0.02 0.04 0.03 0.03 0.03 0.03 0.02 0.02 0.02 0.02 0.04
0.01 0.01 0.02 0.03 0.03 0.03 0.03 0.03 0.05 0.04 0.02 0.01 0.02 0.02 0.02 0.02 0.01 0.01 0.01 0.02 0.03 0.04 0.04 0.03 0.02 0.02 0.03 0.05 0.04 0.02 0.01 0.01 0.03 0.06 0.06 0.04 0.03 0.03 0.02 0.02 0.02 0.03 0.05
0.02 0.02 0.01 0.01 0.02 0.02 0.02 0.03 0.04 0.04 0.03 0.01 0.01 0.03 0.03 0.03 0.03 0.02 0.02 0.02 0.02 0.02 0.02 0.02 0.02 0.02 0.02 0.04 0.02 0.01 0.01 0.01 0.02 0.04 0.06 0.07 0.05 0.03 0.02 0.02 0.02 0.03 0.05
0.02 0.02 0.03 0.02 0.01 0.02 0.02 0.02 0.04 0.03 0.03 0.03 0.03 0.03 0.02 0.02 0.03 0.03 0.03 0.03 0.03 0.03 0.03 0.01 0.01 0.01 0.01 0.01 0.01 0.00 0.00 0.01 0.01 0.02 0.03 0.05 0.05 0.04 0.02 0.02 0.02 0.03 0.04
0.03 0.03 0.03 0.03 0.02 0.03 0.03 0.02 0.03 0.03 0.03 0.04 0.04 0.03 0.01 0.02 0.02 0.03 0.04 0.04 0.02 0.03 0.03 0.01 0.00 0.00 0.00 0.00 0.00 0.01 0.01 0.01 0.01 0.01 0.01 0.02 0.02 0.02 0.02 0.03 0.03 0.04 0.04
0.03 0.03 0.02 0.01 0.01 0.02 0.02 0.01 0.01 0.03 0.03 0.03 0.03 0.03 0.03 0.03 0.02 0.03 0.04 0.04 0.03 0.02 0.01 0.01 0.01 0.00 0.00 0.00 0.00 0.01 0.02 0.01 0.01 0.01 0.01 0.01 0.01 0.02 0.02 0.03 0.04 0.05 0.05
0.03 0.03 0.03 0.02 0.02 0.01 0.01 0.01 0.01 0.03 0.03 0.03 0.03 0.04 0.03 0.03 0.02 0.01 0.03 0.04 0.03 0.02 0.01 0.01 0.01 0.00 0.00 0.00 0.00 0.00 0.02 0.01 0.00 0.00 0.00 0.00 0.01 0.01 0.01 0.02 0.03 0.04 0.04
0.02 0.03 0.03 0.03 0.02 0.02 0.01 0.01 0.01 0.01 0.02 0.02 0.02 0.02 0.03 0.02 0.01 0.01 0.03 0.04 0.04 0.02 0.01 0.01 0.01 0.00 0.00 0.00 0.00 0.00 0.01 0.01 0.00 0.00 0.00 0.00 0.00 0.00 0.00 0.01 0.01 0.01 0.02
0.02 0.03 0.04 0.03 0.03 0.03 0.02 0.02 0.02 0.01 0.01 0.01 0.01 0.01 0.02 0.01 0.00 0.01 0.02 0.03 0.03 0.03 0.02 0.01 0.01 0.01 0.00 0.00 0.00 0.00 0.00 0.00 0.00 0.01 0.00 0.00 0.00 0.00 0.00 0.00 0.00 0.00 0.01
0.02 0.02 0.02 0.03 0.04 0.04 0.02 0.02 0.02 0.02 0.01 0.01 0.01 0.01 0.02 0.01 0.01 0.02 0.02 0.02 0.03 0.03 0.03 0.02 0.00 0.00 0.00 0.00 0.00 0.00 0.00 0.00 0.00 0.01 0.01 0.01 0.00 0.00 0.00 0.00 0.00 0.00 0.00
0.03 0.03 0.02 0.02 0.02 0.03 0.02 0.02 0.02 0.02 0.02 0.01 0.01 0.02 0.02 0.01 0.02 0.02 0.01 0.02 0.02 0.01 0.03 0.01 0.01 0.00 0.00 0.00 0.00 0.00 0.00 0.00 0.00 0.00 0.01 0.01 0.00 0.00 0.00 0.00 0.00 0.00 0.00
0.04 0.02 0.02 0.03 0.03 0.02 0.03 0.02 0.02 0.02 0.02 0.01 0.03 0.02 0.01 0.01 0.02 0.01 0.01 0.02 0.01 0.01 0.02 0.01 0.00 0.00 0.00 0.00 0.00 0.00 0.00 0.00 0.00 0.00 0.00 0.00 0.00 0.00 0.00 0.00 0.00 0.00 0.00
0.03 0.02 0.02 0.02 0.03 0.02 0.03 0.02 0.01 0.01 0.01 0.01 0.02 0.02 0.01 0.02 0.02 0.01 0.01 0.01 0.01 0.01 0.02 0.02 0.00 0.00 0.00 0.00 0.00 0.00 0.00 0.00 0.00 0.00 0.00 0.00 0.00 0.00 0.00 0.00 0.00 0.00 0.00
0.03 0.03 0.03 0.02 0.02 0.02 0.02 0.02 0.01 0.01 0.01 0.02 0.02 0.02 0.01 0.01 0.01 0.01 0.01 0.01 0.00 0.01 0.01 0.01 0.01 0.01 0.01 0.00 0.00 0.00 0.00 0.00 0.00 0.00 0.00 0.00 0.00 0.00 0.00 0.00 0.00 0.00 0.00
0.03 0.03 0.03 0.03 0.02 0.02 0.02 0.02 0.03 0.02 0.02 0.02 0.02 0.01 0.01 0.02 0.02 0.01 0.01 0.00 0.00 0.01 0.01 0.01 0.01 0.01 0.01 0.01 0.00 0.00 0.00 0.00 0.00 0.00 0.00 0.00 0.00 0.00 0.00 0.00 0.00 0.00 0.00
0.03 0.03 0.03 0.03 0.03 0.03 0.05 0.05 0.04 0.02 0.03 0.03 0.02 0.01 0.01 0.02 0.02 0.01 0.01 0.00 0.00 0.00 0.01 0.01 0.01 0.01 0.01 0.01 0.01 0.01 0.00 0.00 0.01 0.00 0.00 0.00 0.00 0.01 0.01 0.00 0.00 0.00 0.00
0.04 0.05 0.04 0.03 0.05 0.05 0.06 0.04 0.03 0.02 0.03 0.04 0.03 0.02 0.01 0.01 0.02 0.01 0.00 0.00 0.00 0.00 0.00 0.01 0.01 0.01 0.01 0.01 0.01 0.01 0.01 0.01 0.01 0.01 0.00 0.01 0.00 0.00 0.00 0.00 0.00 0.00 0.00
0.04 0.05 0.07 0.06 0.06 0.05 0.04 0.03 0.03 0.02 0.03 0.03 0.03 0.02 0.02 0.02 0.02 0.02 0.02 0.01 0.00 0.00 0.00 0.00 0.01 0.01 0.01 0.01 0.01 0.01 0.01 0.01 0.01 0.01 0.01 0.01 0.01 0.01 0.00 0.00 0.00 0.00 0.00
0.03 0.04 0.05 0.06 0.05 0.05 0.04 0.04 0.03 0.03 0.03 0.03 0.03 0.03 0.03 0.02 0.02 0.02 0.01 0.01 0.01 0.01 0.01 0.01 0.01 0.01 0.01 0.01 0.01 0.01 0.01 0.01 0.01 0.01 0.01 0.01 0.01 0.01 0.00 0.00 0.01 0.00 0.00
0.03 0.04 0.05 0.05 0.05 0.05 0.04 0.03 0.03 0.02 0.03 0.03 0.03 0.03 0.04 0.04 0.03 0.02 0.01 0.01 0.01 0.01 0.01 0.01 0.01 0.01 0.01 0.01 0.02 0.01 0.01 0.01 0.01 0.01 0.01 0.01 0.01 0.01 0.01 0.01 0.01 0.01 0.01
MSLP
1012.10 1012.21 1012.30 1012.38 1012.47 1012.57 1012.71 1012.89 1013.10 1013.32 1013.55 1013.75 1013.91 1014.05 1014.16 1014.26 1014.37 1014.50 1014.66 1014.84 1015.02 1015.19 1015.34 1015.45 1015.52 1015.56 1015.59 1015.62 1015.66 1015.72 1015.78 1015.84 1015.88 1015.88 1015.86 1015.80 1015.71 1015.60 1015.49 1015.37 1015.25 1015.12 1014.97
1012.14 1012.23 1012.33 1012.43 1012.56 1012.73 1012.93 1013.18 1013.46 1013.75 1014.02 1014.27 1014.46 1014.61 1014.71 1014.80 1014.88 1014.98 1015.10 1015.24 1015.39 1015.54 1015.68 1015.79 1015.86 1015.91 1015.94 1015.97 1016.00 1016.04 1016.09 1016.12 1016.15 1016.15 1016.12 1016.07 1015.99 1015.89 1015.79 1015.67 1015.55 1015.40 1015.22
1012.17 1012.25 1012.35 1012.49 1012.67 1012.90 1013.19 1013.52 1013.88 1014.25 1014.59 1014.89 1015.12 1015.29 1015.40 1015.47 1015.52 1015.57 1015.65 1015.74 1015.85 1015.97 1016.08 1016.17 1016.24 1016.29 1016.32 1016.35 1016.37 1016.40 1016.42 1016.44 1016.45 1016.43 1016.40 1016.34 1016.26 1016.17 1016.06 1015.95 1015.82 1015.66 1015.46
1012.20 1012.28 1012.40 1012.57 1012.81 1013.12 1013.49 1013.90 1014.35 1014.79 1015.19 1015.54 1015.81 1016.00 1016.12 1016.19 1016.22 1016.24 1016.27 1016.31 1016.37 1016.44 1016.51 1016.58 1016.64 1016.68 1016.71 1016.73 1016.75 1016.77 1016.78 1016.78 1016.76 1016.72 1016.67 1016.59 1016.50 1016.41 1016.30 1016.19 1016.05 1015.89 1015.67
1012.29 1012.36 1012.51 1012.73 1013.02 1013.40 1013.83 1014.31 1014.81 1015.30 1015.76 1016.14 1016.45 1016.66 1016.80 1016.88 1016.90 1016.91 1016.90 1016.90 1016.92 1016.94 1016.97 1017.01 1017.04 1017.07 1017.09 1017.11 1017.12 1017.13 1017.13 1017.11 1017.07 1017.01 1016.93 1016.83 1016.72 1016.61 1016.49 1016.37 1016.23 1016.06 1015.85
1012.45 1012.54 1012.71 1012.97 1013.31 1013.73 1014.21 1014.72 1015.25 1015.76 1016.22 1016.62 1016.95 1017.19 1017.36 1017.45 1017.50 1017.51 1017.50 1017.48 1017.46 1017.44 1017.43 1017.43 1017.43 1017.44 1017.45 1017.46 1017.47 1017.48 1017.46 1017.43 1017.37 1017.29 1017.18 1017.05 1016.92 1016.78 1016.65 1016.52 1016.37 1016.20 1015.97
1012.74 1012.83 1013.03 1013.32 1013.69 1014.13 1014.62 1015.13 1015.63 1016.12 1016.56 1016.95 1017.28 1017.54 1017.73 1017.87 1017.95 1018.00 1018.00 1017.99 1017.95 1017.91 1017.87 1017.82 1017.79 1017.77 1017.77 1017.78 1017.79 1017.79 1017.78 1017.74 1017.67 1017.57 1017.43 1017.27 1017.11 1016.95 1016.79 1016.64 1016.48 1016.29 1016.06
1013.14 1013.25 1013.46 1013.77 1014.15 1014.58 1015.05 1015.51 1015.96 1016.39 1016.77 1017.12 1017.43 1017.70 1017.93 1018.11 1018.25 1018.34 1018.39 1018.40 1018.37 1018.31 1018.24 1018.17 1018.11 1018.07 1018.05 1018.05 1018.06 1018.07 1018.07 1018.03 1017.96 1017.84 1017.69 1017.51 1017.32 1017.13 1016.94 1016.76 1016.58 1016.38 1016.15
1013.62 1013.74 1013.97 1014.29 1014.66 1015.07 1015.48 1015.87 1016.23 1016.57 1016.87 1017.16 1017.43 1017.70 1017.95 1018.19 1018.39 1018.55 1018.65 1018.69 1018.68 1018.63 1018.54 1018.44 1018.36 1018.29 1018.27 1018.26 1018.29 1018.31 1018.32 1018.30 1018.24 1018.12 1017.96 1017.77 1017.55 1017.34 1017.13 1016.92 1016.72 1016.50 1016.25
1014.14 1014.27 1014.50 1014.82 1015.17 1015.54 1015.88 1016.19 1016.45 1016.67 1016.88 1017.09 1017.33 1017.58 1017.85 1018.13 1018.40 1018.62 1018.78 1018.87 1018.89 1018.84 1018.75 1018.64 1018.53 1018.46 1018.42 1018.43 1018.46 1018.50 1018.54 1018.54 1018.49 1018.39 1018.23 1018.03 1017.81 1017.58 1017.35 1017.13 1016.90 1016.66 1016.38
1014.60 1014.74 1014.98 1015.29 1015.63 1015.95 1016.23 1016.45 1016.61 1016.73 1016.84 1016.98 1017.16 1017.40 1017.68 1017.99 1018.30 1018.58 1018.80 1018.93 1018.97 1018.94 1018.86 1018.74 1018.63 1018.56 1018.52 1018.53 1018.58 1018.64 1018.69 1018.72 1018.69 1018.61 1018.47 1018.28 1018.06 1017.83 1017.60 1017.37 1017.13 1016.86 1016.57
1014.94 1015.09 1015.35 1015.66 1015.98 1016.26 1016.48 1016.63 1016.70 1016.74 1016.77 1016.84 1016.98 1017.19 1017.47 1017.80 1018.15 1018.46 1018.72 1018.89 1018.96 1018.95 1018.87 1018.77 1018.66 1018.59 1018.56 1018.58 1018.63 1018.71 1018.78 1018.82 1018.81 1018.74 1018.62 1018.46 1018.26 1018.05 1017.82 1017.60 1017.35 1017.09 1016.78
1015.13 1015.30 1015.57 1015.88 1016.19 1016.45 1016.62 1016.72 1016.73 1016.70 1016.68 1016.70 1016.80 1016.99 1017.26 1017.60 1017.95 1018.29 1018.57 1018.76 1018.86 1018.87 1018.81 1018.73 1018.64 1018.57 1018.55 1018.57 1018.63 1018.71 1018.78 1018.82 1018.81 1018.76 1018.66 1018.52 1018.34 1018.16 1017.97 1017.76 1017.54 1017.29 1016.98
1015.18 1015.37 1015.65 1015.96 1016.26 1016.50 1016.66 1016.72 1016.70 1016.64 1016.58 1016.57 1016.64 1016.81 1017.07 1017.40 1017.75 1018.09 1018.37 1018.57 1018.69 1018.72 1018.69 1018.63 1018.57 1018.52 1018.50 1018.53 1018.57 1018.63 1018.68 1018.70 1018.69 1018.63 1018.53 1018.40 1018.26 1018.11 1017.96 1017.80 1017.61 1017.39 1017.12
1015.16 1015.36 1015.64 1015.95 1016.25 1016.47 1016.61 1016.66 1016.63 1016.56 1016.49 1016.47 1016.53 1016.68 1016.92 1017.22 1017.56 1017.88 1018.15 1018.36 1018.49 1018.54 1018.55 1018.52 1018.48 1018.45 1018.44 1018.45 1018.48 1018.50 1018.50 1018.48 1018.42 1018.33 1018.22 1018.10 1017.98 1017.87 1017.76 1017.65 1017.51 1017.34 1017.12
1015.14 1015.35 1015.63 1015.93 1016.21 1016.42 1016.55 1016.59 1016.56 1016.49 1016.43 1016.42 1016.47 1016.61 1016.83 1017.11 1017.41 1017.70 1017.95 1018.15 1018.29 1018.36 1018.40 1018.40 1018.40 1018.39 1018.38 1018.37 1018.36 1018.32 1018.26 1018.16 1018.04 1017.90 1017.76 1017.62 1017.50 1017.41 1017.34 1017.28 1017.20 1017.09 1016.93
1015.23 1015.44 1015.70 1015.98 1016.23 1016.42 1016.53 1016.57 1016.55 1016.49 1016.45 1016.45 1016.51 1016.64 1016.84 1017.08 1017.34 1017.59 1017.81 1018.00 1018.13 1018.22 1018.28 1018.32 1018.34 1018.35 1018.35 1018.32 1018.25 1018.15 1018.00 1017.82 1017.61 1017.39 1017.19 1017.02 1016.88 1016.79 1016.73 1016.70 1016.66 1016.61 1016.51
1015.49 1015.69 1015.92 1016.16 1016.37 1016.53 1016.62 1016.65 1016.64 1016.61 1016.59 1016.61 1016.68 1016.80 1016.97 1017.17 1017.39 1017.59 1017.77 1017.93 1018.05 1018.15 1018.23 1018.30 1018.35 1018.37 1018.37 1018.31 1018.19 1018.02 1017.79 1017.51 1017.21 1016.90 1016.62 1016.39 1016.21 1016.09 1016.02 1015.99 1015.97 1015.94 1015.88
1015.92 1016.10 1016.30 1016.50 1016.67 1016.79 1016.86 1016.88 1016.88 1016.86 1016.87 1016.91 1016.99 1017.11 1017.26 1017.42 1017.58 1017.73 1017.86 1017.98 1018.08 1018.18 1018.27 1018.36 1018.43 1018.47 1018.46 1018.38 1018.23 1017.99 1017.68 1017.32 1016.92 1016.53 1016.17 1015.86 1015.61 1015.44 1015.32 1015.25 1015.21 1015.17 1015.11
1016.49 1016.66 1016.83 1016.99 1017.11 1017.20 1017.24 1017.26 1017.26 1017.28 1017.31 1017.38 1017.47 1017.59 1017.72 1017.84 1017.95 1018.04 1018.11 1018.18 1018.25 1018.33 1018.42 1018.52 1018.61 1018.65 1018.65 1018.56 1018.38 1018.10 1017.74 1017.31 1016.84 1016.37 1015.93 1015.54 1015.22 1014.96 1014.77 1014.62 1014.51 1014.41 1014.32
1017.12 1017.29 1017.44 1017.57 1017.66 1017.72 1017.75 1017.77 1017.79 1017.83 1017.90 1017.99 1018.11 1018.23 1018.34 1018.42 1018.48 1018.51 1018.53 1018.54 1018.57 1018.62 1018.70 1018.80 1018.89 1018.95 1018.96 1018.87 1018.69 1018.40 1018.01 1017.54 1017.03 1016.50 1016.00 1015.54 1015.13 1014.78 1014.49 1014.24 1014.02 1013.82 1013.64
1017.73 1017.91 1018.06 1018.18 1018.26 1018.31 1018.34 1018.37 1018.42 1018.49 1018.60 1018.73 1018.87 1019.00 1019.10 1019.15 1019.17 1019.14 1019.10 1019.06 1019.04 1019.06 1019.12 1019.20 1019.30 1019.37 1019.39 1019.33 1019.16 1018.88 1018.49 1018.03 1017.50 1016.96 1016.41 1015.89 1015.41 1014.97 1014.57 1014.19 1013.84 1013.51 1013.21
1018.27 1018.48 1018.65 1018.77 1018.86 1018.92 1018.96 1019.02 1019.10 1019.22 1019.38 1019.55 1019.72 1019.86 1019.96 1020.00 1019.98 1019.91 1019.82 1019.73 1019.66 1019.64 1019.67 1019.74 1019.84 1019.92 1019.96 1019.92 1019.78 1019.54 1019.19 1018.75 1018.25 1017.70 1017.15 1016.60 1016.06 1015.54 1015.03 1014.53 1014.05 1013.57 1013.12
1018.70 1018.96 1019.17 1019.32 1019.43 1019.52 1019.59 1019.69 1019.81 1019.98 1020.18 1020.40 1020.60 1020.77 1020.88 1020.92 1020.89 1020.79 1020.66 1020.53 1020.43 1020.37 1020.37 1020.42 1020.51 1020.60 1020.65 1020.64 1020.55 1020.35 1020.05 1019.66 1019.20 1018.68 1018.13 1017.57 1017.00 1016.42 1015.83 1015.23 1014.61 1014.00 1013.40
1019.07 1019.39 1019.65 1019.84 1019.99 1020.10 1020.22 1020.35 1020.52 1020.73 1020.98 1021.24 1021.48 1021.69 1021.82 1021.87 1021.84 1021.74 1021.59 1021.44 1021.31 1021.22 1021.20 1021.23 1021.30 1021.38 1021.45 1021.46 1021.40 1021.25 1021.00 1020.66 1020.25 1019.77 1019.25 1018.69 1018.10 1017.49 1016.84 1016.16 1015.45 1014.72 1013.99
1019.44 1019.82 1020.13 1020.37 1020.55 1020.70 1020.85 1021.01 1021.22 1021.47 1021.75 1022.05 1022.33 1022.57 1022.74 1022.82 1022.81 1022.72 1022.58 1022.42 1022.28 1022.18 1022.13 1022.14 1022.19 1022.26 1022.32 1022.34 1022.30 1022.17 1021.96 1021.66 1021.28 1020.84 1020.34 1019.80 1019.21 1018.57 1017.89 1017.16 1016.39 1015.58 1014.77
Thickness
5726 5726 5724 5723 5722 5721 5721 5721 5720 5719 5719 5718 5716 5715 5714 5713 5711 5710 5709 5709 5710 5710 5710 5710 5710 5710 5710 5710 5710 5710 5710 5710 5711 5712 5713 5714 5715 5716 5717 5718 5719 5719 5720
5725 5723 5722 5720 5719 5719 5718 5717 5716 5715 5714 5712 5711 5711 5710 5708 5707 5706 5704 5704 5704 5704 5704 5704 5705 5705 5705 5704 5704 5704 5704 5705 5706 5706 5708 5708 5709 5710 5711 5712 5713 5714 5714
5723 5721 5719 5717 5716 5715 5714 5713 5712 5711 5709 5708 5706 5706 5705 5704 5703 5702 5701 5699 5699 5698 5699 5699 5699 5700 5700 5699 5699 5699 5699 5700 5700 5701 5702 5703 5704 5705 5706 5706 5707 5708 5708
5721 5718 5716 5714 5714 5712 5711 5709 5707 5705 5703 5702 5701 5701 5700 5700 5699 5698 5697 5696 5695 5694 5693 5694 5694 5694 5694 5694 5694 5694 5694 5695 5695 5696 5697 5698 5698 5699 5700 5701 5702 5703 5703
5718 5716 5713 5712 5711 5709 5707 5706 5703 5701 5697 5696 5696 5695 5695 5695 5694 5694 5693 5692 5691 5690 5689 5689 5689 5688 5689 5689 5689 5689 5689 5690 5691 5692 5693 5693 5693 5694 5695 5696 5697 5697 5698
5715 5713 5711 5710 5708 5705 5703 5701 5698 5697 5695 5694 5693 5691 5691 5690 5690 5689 5689 5688 5687 5687 5686 5685 5684 5683 5683 5683 5683 5684 5684 5685 5687 5688 5688 5688 5689 5689 5690 5691 5692 5693 5693
5712 5711 5709 5707 5705 5702 5700 5698 5695 5693 5691 5691 5687 5683 5684 5686 5686 5685 5685 5684 5683 5683 5682 5682 5680 5679 5678 5678 5678 5679 5679 5681 5682 5683 5684 5684 5684 5685 5685 5686 5687 5687 5688
5710 5709 5707 5704 5702 5700 5697 5695 5692 5689 5688 5689 5684 5678 5673 5673 5678 5681 5681 5680 5680 5680 5679 5678 5677 5676 5674 5674 5673 5673 5674 5676 5677 5678 5678 5679 5679 5679 5680 5681 5681 5682 5682
5708 5706 5705 5703 5701 5698 5695 5693 5691 5688 5684 5686 5687 5681 5673 5666 5669 5673 5675 5676 5676 5676 5675 5675 5674 5672 5671 5670 5669 5668 5670 5671 5672 5673 5673 5674 5674 5674 5675 5675 5676 5676 5677
5706 5704 5702 5701 5699 5697 5694 5693 5691 5689 5686 5682 5684 5685 5683 5677 5669 5663 5667 5671 5672 5672 5672 5671 5670 5668 5667 5666 5664 5664 5665 5666 5666 5667 5668 5669 5669 5669 5669 5670 5670 5671 5671
5703 5702 5700 5699 5697 5695 5694 5693 5691 5689 5687 5684 5682 5681 5680 5678 5676 5667 5661 5663 5666 5668 5669 5668 5666 5665 5663 5662 5661 5660 5661 5661 5661 5662 5663 5663 5663 5664 5664 5664 5664 5664 5664
5700 5700 5699 5697 5696 5694 5693 5692 5690 5689 5687 5686 5684 5682 5678 5675 5672 5669 5663 5661 5660 5662 5665 5665 5663 5662 5660 5659 5657 5657 5656 5656 5656 5657 5657 5658 5657 5658 5658 5658 5658 5658 5658
5697 5698 5697 5696 5695 5694 5693 5691 5690 5688 5687 5685 5683 5682 5681 5679 5678 5674 5667 5662 5660 5660 5661 5661 5660 5659 5657 5656 5654 5653 5653 5653 5652 5652 5652 5652 5651 5652 5652 5652 5652 5652 5652
5698 5697 5696 5695 5694 5693 5692 5691 5689 5687 5686 5685 5684 5682 5681 5680 5679 5676 5671 5664 5657 5656 5656 5656 5657 5657 5655 5653 5651 5650 5649 5649 5648 5647 5647 5646 5646 5646 5645 5646 5646 5646 5646
5699 5697 5695 5694 5693 5692 5691 5690 5688 5686 5685 5684 5682 5681 5680 5679 5679 5677 5674 5669 5661 5653 5650 5653 5654 5654 5653 5651 5649 5647 5646 5645 5644 5643 5642 5642 5641 5640 5640 5640 5640 5640 5640
5699 5696 5695 5693 5692 5692 5691 5689 5687 5686 5684 5682 5681 5680 5678 5678 5677 5676 5673 5671 5668 5661 5653 5653 5653 5653 5652 5649 5647 5645 5643 5642 5641 5640 5639 5638 5637 5636 5636 5635 5635 5635 5634
5697 5695 5694 5693 5692 5690 5690 5688 5686 5684 5682 5680 5680 5679 5677 5677 5674 5673 5672 5670 5667 5663 5655 5652 5652 5651 5650 5647 5644 5642 5640 5639 5637 5636 5635 5634 5633 5632 5631 5631 5630 5630 5629
5696 5695 5694 5692 5691 5690 5689 5687 5684 5683 5681 5679 5678 5677 5675 5675 5672 5671 5669 5667 5665 5663 5657 5650 5648 5648 5647 5645 5643 5641 5639 5636 5635 5633 5632 5631 5630 5629 5628 5627 5626 5625 5624
5693 5693 5692 5691 5690 5689 5688 5686 5684 5683 5681 5679 5678 5676 5674 5673 5669 5668 5667 5665 5663 5662 5658 5652 5647 5646 5644 5643 5640 5639 5637 5635 5633 5631 5630 5628 5627 5625 5624 5623 5622 5620 5619
5691 5690 5690 5690 5689 5688 5687 5686 5684 5682 5680 5679 5677 5676 5674 5672 5669 5667 5665 5663 5661 5658 5655 5650 5646 5643 5641 5640 5638 5635 5633 5632 5631 5630 5628 5625 5624 5622 5620 5619 5618 5616 5615
5688 5687 5687 5687 5687 5686 5685 5683 5682 5680 5678 5676 5675 5674 5673 5671 5669 5667 5665 5662 5659 5655 5651 5647 5643 5640 5638 5635 5634 5633 5630 5629 5628 5627 5625 5622 5620 5619 5617 5615 5614 5612 5610
5684 5683 5683 5682 5681 5682 5681 5680 5679 5678 5676 5674 5672 5670 5669 5668 5666 5665 5663 5661 5658 5654 5650 5646 5642 5639 5637 5635 5634 5632 5628 5625 5622 5624 5622 5619 5618 5615 5614 5612 5610 5608 5606
5679 5678 5678 5678 5676 5676 5676 5676 5676 5675 5673 5671 5670 5668 5667 5665 5663 5661 5659 5657 5655 5653 5651 5648 5643 5640 5638 5637 5633 5630 5627 5625 5622 5622 5620 5616 5615 5612 5611 5609 5607 5605 5602
5673 5673 5673 5673 5672 5672 5672 5671 5671 5671 5669 5668 5667 5666 5664 5661 5660 5657 5655 5652 5650 5649 5648 5647 5645 5643 5641 5638 5634 5631 5627 5623 5622 5620 5618 5612 5612 5609 5608 5605 5603 5601 5598
5669 5669 5669 5668 5667 5667 5668 5668 5667 5666 5665 5664 5664 5663 5662 5658 5657 5655 5651 5647 5645 5644 5644 5644 5643 5641 5639 5636 5632 5628 5623 5618 5614 5614 5613 5609 5608 5605 5603 5601 5599 5596 5594
5664 5665 5664 5664 5664 5663 5663 5663 5663 5662 5660 5659 5659 5658 5657 5655 5653 5651 5647 5644 5640 5640 5639 5637 5636 5635 5633 5631 5628 5625 5621 5616 5611 5609 5609 5606 5603 5600 5597 5595 5593 5590 5588